| time (UTC) | temp F | wind direction | speed knots | gust knots | rain 1hr in | rain 24hr in | rain mn in | humidity % | barometer mb |
| 20260906063740 | 64 | 340 | 8.7 | 0.0 | 0.00 | 0.00 | 0.00 | 77 | 1018.0 |
| 20260906062739 | 63 | 10 | 2.6 | 0.0 | 0.00 | 0.00 | 0.00 | 80 | 1018.0 |
| 20260906061738 | 63 | 10 | 2.6 | 0.0 | 0.00 | 0.00 | 0.00 | 81 | 1018.0 |
| 20260906060737 | 63 | 0 | 1.7 | 0.0 | 0.00 | 0.00 | 0.00 | 82 | 1018.0 |
| 20260906055737 | 63 | 0 | 1.7 | 0.0 | 0.00 | 0.00 | 0.00 | 83 | 1018.0 |
| 20260906054736 | 63 | 0 | 1.7 | 0.0 | 0.00 | 0.00 | 0.00 | 84 | 1018.0 |
| 20260906053734 | 58 | 350 | 14.8 | 0.0 | 0.00 | 0.00 | 0.00 | 89 | 1018.0 |
| 20260906052734 | 58 | 350 | 14.8 | 0.0 | 0.00 | 0.00 | 0.00 | 89 | 1018.0 |
| 20260906051733 | 58 | 350 | 14.8 | 0.0 | 0.00 | 0.00 | 0.00 | 90 | 1018.0 |
| 20260906050732 | 58 | 350 | 14.8 | 0.0 | 0.00 | 0.00 | 0.00 | 90 | 1018.0 |
| 20260906045731 | 58 | 350 | 14.8 | 0.0 | 0.00 | 0.00 | 0.00 | 90 | 1018.0 |
| 20260906044731 | 58 | 350 | 14.8 | 0.0 | 0.00 | 0.00 | 0.00 | 89 | 1018.0 |
| 20260906043730 | 58 | 350 | 14.8 | 0.0 | 0.00 | 0.00 | 0.00 | 89 | 1018.0 |
| 20260906042729 | 58 | 350 | 14.8 | 0.0 | 0.00 | 0.00 | 0.00 | 89 | 1018.0 |
| 20260906041728 | 58 | 350 | 14.8 | 0.0 | 0.00 | 0.00 | 0.00 | 89 | 1018.0 |
| 20260906040727 | 58 | 350 | 14.8 | 0.0 | 0.00 | 0.00 | 0.00 | 89 | 1018.0 |
| 20260906035726 | 58 | 350 | 14.8 | 0.0 | 0.00 | 0.00 | 0.00 | 89 | 1018.0 |
| 20260906034725 | 58 | 350 | 14.8 | 0.0 | 0.00 | 0.00 | 0.00 | 89 | 1017.0 |
| 20260906033725 | 58 | 350 | 14.8 | 0.0 | 0.00 | 0.00 | 0.00 | 89 | 1017.0 |
| 20260906032724 | 58 | 350 | 14.8 | 0.0 | 0.00 | 0.00 | 0.00 | 88 | 1017.0 |
| 20260906031723 | 58 | 350 | 14.8 | 0.0 | 0.00 | 0.00 | 0.00 | 88 | 1017.0 |
| 20260906030722 | 58 | 350 | 14.8 | 0.0 | 0.00 | 0.00 | 0.00 | 88 | 1017.0 |
| 20260906025721 | 59 | 350 | 14.8 | 0.0 | 0.00 | 0.00 | 0.00 | 88 | 1017.0 |
| 20260906024720 | 59 | 350 | 14.8 | 0.0 | 0.00 | 0.00 | 0.00 | 88 | 1017.0 |
| 20260906023720 | 59 | 350 | 14.8 | 0.0 | 0.00 | 0.00 | 0.00 | 88 | 1017.0 |
| 20260906022719 | 59 | 350 | 14.8 | 0.0 | 0.00 | 0.00 | 0.00 | 88 | 1017.0 |
| 20260906021718 | 59 | 350 | 14.8 | 0.0 | 0.00 | 0.00 | 0.00 | 88 | 1017.0 |
| 20260906020718 | 59 | 350 | 14.8 | 0.0 | 0.00 | 0.00 | 0.00 | 88 | 1017.0 |
| 20260906015717 | 60 | 350 | 14.8 | 0.0 | 0.00 | 0.00 | 0.00 | 88 | 1017.0 |
| 20260906014716 | 61 | 350 | 14.8 | 0.0 | 0.00 | 0.00 | 0.00 | 88 | 1017.0 |
| 20260906013716 | 61 | 350 | 14.8 | 0.0 | 0.00 | 0.00 | 0.00 | 88 | 1017.0 |
| 20260906012714 | 61 | 350 | 14.8 | 0.0 | 0.00 | 0.00 | 0.00 | 88 | 1017.0 |
| 20260906011714 | 61 | 350 | 14.8 | 0.0 | 0.00 | 0.00 | 0.00 | 88 | 1017.0 |
| 20260906010713 | 62 | 350 | 14.8 | 0.0 | 0.00 | 0.00 | 0.00 | 88 | 1017.0 |
| 20260906005711 | 62 | 350 | 14.8 | 0.0 | 0.00 | 0.00 | 0.00 | 88 | 1017.0 |
| 20260906004711 | 62 | 350 | 14.8 | 0.0 | 0.00 | 0.00 | 0.00 | 88 | 1017.0 |
| 20260906003710 | 62 | 350 | 14.8 | 0.0 | 0.00 | 0.00 | 0.00 | 88 | 1017.0 |
| 20260906002709 | 62 | 350 | 14.8 | 0.0 | 0.00 | 0.00 | 0.00 | 88 | 1017.0 |
| 20260906001709 | 62 | 350 | 14.8 | 0.0 | 0.00 | 0.00 | 0.00 | 88 | 1017.0 |
| 20260906000708 | 62 | 350 | 14.8 | 0.0 | 0.00 | 0.00 | 0.00 | 88 | 1017.0 |
| 20260905235707 | 62 | 350 | 14.8 | 0.0 | 0.00 | 0.00 | 0.00 | 88 | 1017.0 |
| 20260905234706 | 62 | 350 | 14.8 | 0.0 | 0.00 | 0.00 | 0.00 | 88 | 1017.0 |
| 20260905233705 | 62 | 350 | 14.8 | 0.0 | 0.00 | 0.00 | 0.00 | 88 | 1017.0 |
| 20260905232704 | 62 | 350 | 14.8 | 0.0 | 0.00 | 0.00 | 0.00 | 88 | 1017.0 |
| 20260905231703 | 62 | 350 | 14.8 | 0.0 | 0.00 | 0.00 | 0.00 | 88 | 1017.0 |
| 20260905230703 | 62 | 350 | 14.8 | 0.0 | 0.00 | 0.00 | 0.00 | 88 | 1017.0 |
| 20260905225702 | 62 | 350 | 14.8 | 0.0 | 0.00 | 0.00 | 0.00 | 88 | 1017.0 |
| 20260905224701 | 63 | 350 | 14.8 | 0.0 | 0.00 | 0.00 | 0.00 | 88 | 1017.0 |
| 20260905223701 | 63 | 350 | 14.8 | 0.0 | 0.00 | 0.00 | 0.00 | 87 | 1017.0 |
| 20260905222700 | 63 | 350 | 14.8 | 0.0 | 0.00 | 0.00 | 0.00 | 87 | 1017.0 |
| 20260905221659 | 63 | 350 | 14.8 | 0.0 | 0.00 | 0.00 | 0.00 | 87 | 1017.0 |
| 20260905220658 | 63 | 350 | 14.8 | 0.0 | 0.00 | 0.00 | 0.00 | 87 | 1017.0 |
| 20260905215657 | 63 | 350 | 14.8 | 0.0 | 0.00 | 0.00 | 0.00 | 87 | 1017.0 |
| 20260905214657 | 63 | 350 | 14.8 | 0.0 | 0.04 | 0.00 | 0.00 | 87 | 1017.0 |
| 20260905213656 | 63 | 350 | 14.8 | 0.0 | 0.00 | 0.00 | 0.00 | 87 | 1017.0 |
| 20260905212654 | 63 | 350 | 14.8 | 0.0 | 0.00 | 0.00 | 0.00 | 86 | 1017.0 |
| 20260905211654 | 63 | 350 | 14.8 | 0.0 | 0.00 | 0.00 | 0.00 | 86 | 1017.0 |
| 20260905210652 | 64 | 350 | 14.8 | 0.0 | 0.00 | 0.00 | 0.00 | 86 | 1017.0 |
| 20260905205651 | 64 | 350 | 14.8 | 0.0 | 0.00 | 0.00 | 0.00 | 85 | 1017.0 |
| 20260905204650 | 64 | 350 | 14.8 | 0.0 | 0.00 | 0.00 | 0.00 | 85 | 1017.0 |
| 20260905203650 | 64 | 350 | 14.8 | 0.0 | 0.00 | 0.00 | 0.00 | 85 | 1017.0 |
| 20260905202649 | 64 | 350 | 14.8 | 0.0 | 0.00 | 0.00 | 0.00 | 84 | 1017.0 |
| 20260905201648 | 64 | 350 | 14.8 | 0.0 | 0.09 | 0.00 | 0.00 | 83 | 1017.0 |
| 20260905200647 | 65 | 350 | 14.8 | 0.0 | 0.16 | 0.00 | 0.00 | 82 | 1017.0 |
| 20260905195646 | 65 | 350 | 14.8 | 0.0 | 0.70 | 0.00 | 0.00 | 81 | 1017.0 |
| 20260905194646 | 65 | 350 | 14.8 | 0.0 | 0.21 | 0.00 | 0.00 | 80 | 1017.0 |
| 20260905193644 | 65 | 350 | 14.8 | 0.0 | 0.02 | 0.00 | 0.00 | 78 | 1017.0 |
| 20260905192643 | 66 | 350 | 14.8 | 0.0 | 0.00 | 0.00 | 0.00 | 76 | 1016.0 |
| 20260905191642 | 67 | 350 | 14.8 | 0.0 | 0.11 | 0.00 | 0.00 | 74 | 1016.0 |
| 20260905190641 | 68 | 350 | 14.8 | 0.0 | 0.13 | 0.00 | 0.00 | 71 | 1016.0 |
| 20260905185641 | 69 | 350 | 14.8 | 0.0 | 0.70 | 0.00 | 0.00 | 68 | 1016.0 |
| 20260905184640 | 70 | 350 | 14.8 | 0.0 | 0.09 | 0.00 | 0.00 | 64 | 1016.0 |
| 20260905183639 | 71 | 350 | 14.8 | 0.0 | 0.14 | 0.00 | 0.00 | 59 | 1016.0 |
| 20260905182638 | 72 | 350 | 14.8 | 0.0 | 0.57 | 0.00 | 0.00 | 53 | 1016.0 |
| 20260905181637 | 73 | 350 | 14.8 | 0.0 | 0.00 | 0.00 | 0.00 | 48 | 1015.0 |
| 20260905180637 | 73 | 350 | 14.8 | 0.0 | 0.00 | 0.00 | 0.00 | 47 | 1015.0 |
| 20260905175636 | 73 | 360 | 14.8 | 0.0 | 0.00 | 0.00 | 0.00 | 46 | 1015.0 |
| 20260905174635 | 73 | 360 | 14.8 | 0.0 | 0.04 | 0.00 | 0.00 | 46 | 1015.0 |
| 20260905173634 | 75 | 10 | 20.9 | 31.3 | 0.00 | 0.00 | 0.00 | 41 | 1015.0 |
| 20260905172634 | 75 | 10 | 20.9 | 31.3 | 0.00 | 0.00 | 0.00 | 41 | 1014.0 |
| 20260905171633 | 76 | 10 | 20.9 | 31.3 | 0.00 | 0.00 | 0.00 | 41 | 1014.0 |
| 20260905170632 | 76 | 10 | 20.9 | 31.3 | 0.00 | 0.00 | 0.00 | 43 | 1014.0 |
| 20260905165631 | 79 | 350 | 20.0 | 30.4 | 0.00 | 0.00 | 0.00 | 47 | 1014.0 |
| 20260905164630 | 79 | 350 | 20.0 | 30.4 | 0.00 | 0.00 | 0.00 | 47 | 1013.0 |
| 20260905163630 | 81 | 350 | 20.0 | 30.4 | 0.00 | 0.00 | 0.00 | 34 | 1013.0 |
| 20260905162629 | 86 | 240 | 7.8 | 0.0 | 0.00 | 0.00 | 0.00 | 29 | 1012.0 |
| 20260905161628 | 87 | 240 | 7.8 | 0.0 | 0.00 | 0.00 | 0.00 | 29 | 1012.0 |
| 20260905160627 | 88 | 240 | 7.8 | 0.0 | 0.00 | 0.00 | 0.00 | 29 | 1012.0 |
| 20260905155627 | 88 | 240 | 7.8 | 0.0 | 0.00 | 0.00 | 0.00 | 29 | 1012.0 |
| 20260905154626 | 88 | 240 | 7.8 | 0.0 | 0.00 | 0.00 | 0.00 | 29 | 1012.0 |
| 20260905153625 | 92 | 270 | 11.3 | 0.0 | 0.00 | 0.00 | 0.00 | 13 | 1012.0 |
| 20260905152625 | 92 | 270 | 11.3 | 0.0 | 0.00 | 0.00 | 0.00 | 13 | 1012.0 |
| 20260905151624 | 92 | 270 | 11.3 | 0.0 | 0.00 | 0.00 | 0.00 | 13 | 1012.0 |
| 20260905150624 | 93 | 270 | 11.3 | 0.0 | 0.00 | 0.00 | 0.00 | 14 | 1012.0 |
| 20260905145622 | 93 | 270 | 11.3 | 0.0 | 0.00 | 0.00 | 0.00 | 16 | 1012.0 |
| 20260905144622 | 93 | 270 | 11.3 | 0.0 | 0.00 | 0.00 | 0.00 | 19 | 1012.0 |
| 20260905143621 | 93 | 270 | 11.3 | 0.0 | 0.00 | 0.00 | 0.00 | 19 | 1012.0 |
| 20260905142620 | 94 | 270 | 11.3 | 0.0 | 0.00 | 0.00 | 0.00 | 19 | 1011.0 |
| 20260905141620 | 94 | 270 | 11.3 | 0.0 | 0.00 | 0.00 | 0.00 | 19 | 1011.0 |
| 20260905140618 | 95 | 270 | 11.3 | 0.0 | 0.00 | 0.00 | 0.00 | 19 | 1011.0 |
| 20260905135618 | 95 | 270 | 11.3 | 0.0 | 0.00 | 0.00 | 0.00 | 19 | 1011.0 |
| 20260905134617 | 95 | 270 | 11.3 | 0.0 | 0.00 | 0.00 | 0.00 | 19 | 1012.0 |
| 20260905133616 | 94 | 270 | 11.3 | 0.0 | 0.00 | 0.00 | 0.00 | 19 | 1012.0 |
| 20260905132615 | 93 | 270 | 11.3 | 0.0 | 0.00 | 0.00 | 0.00 | 19 | 1012.0 |
| 20260905131614 | 92 | 270 | 11.3 | 0.0 | 0.00 | 0.00 | 0.00 | 19 | 1012.0 |
| 20260905130614 | 92 | 270 | 11.3 | 0.0 | 0.00 | 0.00 | 0.00 | 19 | 1012.0 |
| 20260905125612 | 92 | 270 | 11.3 | 0.0 | 0.00 | 0.00 | 0.00 | 19 | 1012.0 |
| 20260905124612 | 92 | 270 | 11.3 | 0.0 | 0.00 | 0.00 | 0.00 | 19 | 1012.0 |
| 20260905123611 | 92 | 270 | 11.3 | 0.0 | 0.00 | 0.00 | 0.00 | 19 | 1012.0 |
| 20260905122610 | 92 | 270 | 11.3 | 0.0 | 0.00 | 0.00 | 0.00 | 19 | 1013.0 |
| 20260905121609 | 92 | 270 | 11.3 | 0.0 | 0.00 | 0.00 | 0.00 | 19 | 1013.0 |
| 20260905120608 | 92 | 270 | 11.3 | 0.0 | 0.00 | 0.00 | 0.00 | 19 | 1013.0 |
| 20260905115608 | 92 | 270 | 11.3 | 0.0 | 0.00 | 0.00 | 0.00 | 19 | 1013.0 |
| 20260905114606 | 92 | 270 | 11.3 | 0.0 | 0.00 | 0.00 | 0.00 | 19 | 1013.0 |
| 20260905113606 | 92 | 270 | 11.3 | 0.0 | 0.00 | 0.00 | 0.00 | 19 | 1013.0 |
| 20260905112604 | 92 | 270 | 11.3 | 0.0 | 0.00 | 0.00 | 0.00 | 19 | 1013.0 |
| 20260905111603 | 92 | 270 | 11.3 | 0.0 | 0.00 | 0.00 | 0.00 | 19 | 1013.0 |
| 20260905110602 | 92 | 270 | 11.3 | 0.0 | 0.00 | 0.00 | 0.00 | 19 | 1013.0 |
| 20260905105602 | 92 | 270 | 11.3 | 0.0 | 0.00 | 0.00 | 0.00 | 19 | 1013.0 |
| 20260905104601 | 92 | 270 | 11.3 | 0.0 | 0.00 | 0.00 | 0.00 | 19 | 1013.0 |
| 20260905103600 | 92 | 270 | 11.3 | 0.0 | 0.00 | 0.00 | 0.00 | 19 | 1013.0 |
| 20260905102559 | 92 | 270 | 11.3 | 0.0 | 0.00 | 0.00 | 0.00 | 19 | 1013.0 |
| 20260905101559 | 92 | 270 | 11.3 | 0.0 | 0.00 | 0.00 | 0.00 | 19 | 1013.0 |
| 20260905100558 | 92 | 270 | 11.3 | 0.0 | 0.00 | 0.00 | 0.00 | 19 | 1013.0 |
| 20260905095557 | 92 | 270 | 11.3 | 0.0 | 0.00 | 0.00 | 0.00 | 19 | 1013.0 |
| 20260905094557 | 92 | 270 | 11.3 | 0.0 | 0.00 | 0.00 | 0.00 | 19 | 1014.0 |
| 20260905093556 | 92 | 270 | 11.3 | 0.0 | 0.00 | 0.00 | 0.00 | 19 | 1014.0 |
| 20260905092555 | 91 | 270 | 11.3 | 0.0 | 0.00 | 0.00 | 0.00 | 19 | 1014.0 |
| 20260905091554 | 91 | 270 | 11.3 | 0.0 | 0.00 | 0.00 | 0.00 | 19 | 1014.0 |
| 20260905090554 | 91 | 270 | 11.3 | 0.0 | 0.00 | 0.00 | 0.00 | 19 | 1014.0 |
| 20260905085552 | 91 | 270 | 11.3 | 0.0 | 0.00 | 0.00 | 0.00 | 19 | 1014.0 |
| 20260905084552 | 91 | 270 | 11.3 | 0.0 | 0.00 | 0.00 | 0.00 | 19 | 1014.0 |
| 20260905083551 | 82 | 280 | 11.3 | 0.0 | 0.00 | 0.00 | 0.00 | 32 | 1014.0 |
| 20260905082550 | 82 | 280 | 11.3 | 0.0 | 0.00 | 0.00 | 0.00 | 32 | 1015.0 |
| 20260905081550 | 82 | 280 | 11.3 | 0.0 | 0.00 | 0.00 | 0.00 | 32 | 1015.0 |
| 20260905080549 | 82 | 280 | 11.3 | 0.0 | 0.00 | 0.00 | 0.00 | 32 | 1014.0 |
| 20260905075548 | 81 | 280 | 11.3 | 0.0 | 0.00 | 0.00 | 0.00 | 34 | 1014.0 |
| 20260905074547 | 80 | 280 | 11.3 | 0.0 | 0.00 | 0.00 | 0.00 | 37 | 1014.0 |
| 20260905073546 | 80 | 260 | 10.4 | 0.0 | 0.00 | 0.00 | 0.00 | 39 | 1014.0 |
| 20260905072544 | 80 | 260 | 10.4 | 0.0 | 0.00 | 0.00 | 0.00 | 40 | 1015.0 |
| 20260905071544 | 80 | 260 | 10.4 | 0.0 | 0.00 | 0.00 | 0.00 | 42 | 1015.0 |
| 20260905070543 | 80 | 260 | 7.0 | 0.0 | 0.00 | 0.00 | 0.00 | 44 | 1015.0 |
| 20260905065542 | 80 | 260 | 7.0 | 0.0 | 0.00 | 0.00 | 0.00 | 45 | 1015.0 |
| 20260905064542 | 80 | 260 | 7.0 | 0.0 | 0.00 | 0.00 | 0.00 | 46 | 1015.0 |